Ionia, MI

2:46 PM EST on February 20, 2018 (GMT -0500)
Ionia

Weather History for KY70 - December, 2012

Change the Weather History Date:

Monday, December 3, 2012

  Actual Average (KGRR) Record (KGRR)
Temperature  
Mean Temperature 49 °F -  
Max Temperature 63 °F 36 °F 65 °F (2012)
Min Temperature 35 °F 23 °F -6 °F (1976)
Degree Days  
Heating Degree Days 16    
Moisture  
Dew Point 50 °F    
Average Humidity 93    
Maximum Humidity 99    
Minimum Humidity 74    
Precipitation  
Precipitation 0.00 in - - ()
Sea Level Pressure  
Sea Level Pressure 29.97 in    
Wind  
Wind Speed 9 mph (SSE)    
Max Wind Speed 23 mph    
Max Gust Speed 38 mph    
Visibility 4 miles    
Events Fog , Snow    
Averages and records for this station are not official NWS values.
T = Trace of Precipitation, MM = Missing Value Source: NWS Daily Summary

Daily Weather History Graph

Daily Weather History Graph

Search for Another Location

Airport or City:

Trip Planner

Search our weather history database for the weather conditions in past years. The results will help you decide how hot, cold, wet, or windy it might be!

Date:

Astronomy

Dec. 03, 2012 Rise Set
Actual Time 7:54 AM EST 5:06 PM EST
Civil Twilight 7:22 AM EST 5:38 PM EST
Nautical Twilight 6:46 AM EST 6:13 PM EST
Astronomical Twilight 6:12 AM EST 6:47 PM EST
Moon 9:56 PM EST (12/3) 11:13 AM EST (12/3)
Length of Visible Light 10h 15m
Length of Day
9h 11m
Waning Gibbous, 78% of the Moon is Illuminated
Dec 3
Waning Gibbous
Dec 6
Last Quarter
Dec 13
New
Dec 20
First Quarter
Dec 28
Full

Hourly Weather History & Observations

Time (EST) Temp. Windchill Dew Point Humidity Pressure Visibility Wind Dir Wind Speed Gust Speed Precip Events Conditions
12:14 AM 38.7 °F 35.2 °F 37.8 °F 97% 30.08 in 0.2 mi East 4.6 mph - N/A Fog Fog
12:34 AM 38.1 °F 33.7 °F 37.4 °F 97% 30.09 in 0.5 mi East 5.8 mph - N/A Fog Fog
12:54 AM 39.4 °F 34.5 °F 38.7 °F 97% 30.09 in 1.5 mi East 6.9 mph - N/A   Scattered Clouds
1:14 AM 39.9 °F 35.1 °F 39.2 °F 97% 30.09 in 1.5 mi ESE 6.9 mph - N/A   Scattered Clouds
1:34 AM 39.6 °F 35.4 °F 38.8 °F 97% 30.09 in 2.0 mi ESE 5.8 mph - N/A   Clear
1:54 AM 39.9 °F 37.8 °F 39.2 °F 97% 30.08 in 0.5 mi East 3.5 mph - N/A Fog Fog
2:14 AM 39.7 °F 35.6 °F 39.0 °F 97% 30.08 in 0.5 mi East 5.8 mph - N/A Fog Fog
2:34 AM 38.3 °F 34.8 °F 37.6 °F 97% 30.09 in 0.2 mi SE 4.6 mph - N/A Fog Fog
2:54 AM 36.5 °F 33.9 °F 35.8 °F 97% 30.09 in 0.2 mi SE 3.5 mph - N/A Fog Fog
3:14 AM 36.7 °F - 36.1 °F 98% 30.09 in 0.2 mi Calm Calm - N/A Fog Fog
3:34 AM 35.6 °F 31.7 °F 35.2 °F 99% 30.09 in 0.2 mi SE 4.6 mph - N/A Snow Light Snow
3:54 AM 35.8 °F 31.9 °F 35.4 °F 99% 30.09 in 0.2 mi East 4.6 mph - N/A Fog Fog
4:14 AM 36.7 °F 32.9 °F 36.3 °F 99% 30.09 in 0.2 mi East 4.6 mph - N/A Fog Fog
4:34 AM 37.6 °F 33.1 °F 37.0 °F 98% 30.08 in 0.2 mi East 5.8 mph - N/A Fog Fog
4:54 AM 39.4 °F 36.1 °F 39.0 °F 99% 30.07 in 0.5 mi ESE 4.6 mph - N/A Fog Fog
5:34 AM 40.8 °F 38.8 °F 40.3 °F 98% 30.07 in 2.0 mi SE 3.5 mph - N/A   Overcast
5:54 AM 41.2 °F 39.2 °F 40.5 °F 97% 30.06 in 2.0 mi SE 3.5 mph - N/A   Overcast
6:14 AM 42.1 °F 38.4 °F 41.4 °F 97% 30.06 in 2.0 mi SE 5.8 mph - N/A   Overcast
6:34 AM 42.4 °F 38.1 °F 41.9 °F 98% 30.05 in 1.8 mi SE 6.9 mph - N/A   Overcast
6:54 AM 43.3 °F 38.1 °F 42.8 °F 98% 30.05 in 0.5 mi SE 9.2 mph - N/A Fog Fog
7:14 AM 43.9 °F 40.5 °F 43.3 °F 98% 30.06 in 0.5 mi SE 5.8 mph - N/A Fog Fog
7:34 AM 45.3 °F 41.6 °F 44.6 °F 97% 30.05 in 0.5 mi SE 6.9 mph - N/A Fog Fog
7:54 AM 46.2 °F 42.2 °F 45.5 °F 97% 30.05 in 0.5 mi SSE 8.1 mph - N/A Fog Fog
8:14 AM 48.6 °F - 47.8 °F 97% 30.05 in 0.5 mi SSE 10.4 mph - N/A Fog Fog
8:34 AM 49.1 °F - 48.6 °F 98% 30.05 in 0.5 mi SSE 11.5 mph - N/A Fog Fog
8:54 AM 49.6 °F - 49.1 °F 98% 30.05 in 0.5 mi SSE 9.2 mph - N/A Fog Fog
9:14 AM 50.2 °F - 49.6 °F 98% 30.05 in 0.8 mi SE 6.9 mph - N/A   Overcast
9:34 AM 50.9 °F - 50.2 °F 97% 30.05 in 0.8 mi SE 8.1 mph - N/A   Overcast
10:14 AM 52.0 °F - 51.4 °F 98% 30.04 in 1.2 mi SSE 9.2 mph - N/A   Overcast
10:34 AM 53.1 °F - 52.7 °F 99% 30.03 in 1.8 mi SSE 12.7 mph - N/A   Overcast
10:54 AM 53.8 °F - 53.2 °F 98% 30.02 in 2.0 mi SSE 11.5 mph - N/A   Overcast
11:14 AM 54.5 °F - 54.0 °F 98% 30.02 in 2.0 mi South 12.7 mph - N/A   Overcast
11:34 AM 54.7 °F - 54.1 °F 98% 30.01 in 2.0 mi South 12.7 mph - N/A   Overcast
11:54 AM 55.4 °F - 54.7 °F 97% 29.99 in 2.0 mi SSE 12.7 mph - N/A   Overcast
12:14 PM 55.6 °F - 55.0 °F 98% 29.97 in 2.5 mi SSE 12.7 mph - N/A   Overcast
12:34 PM 55.8 °F - 55.2 °F 98% 29.96 in 2.5 mi SSE 15.0 mph - N/A   Overcast
12:54 PM 56.7 °F - 55.8 °F 97% 29.95 in 3.0 mi South 12.7 mph - N/A   Overcast
1:14 PM 57.4 °F - 55.9 °F 95% 29.94 in 4.0 mi South 15.0 mph - N/A   Overcast
1:34 PM 57.7 °F - 55.9 °F 94% 29.94 in 4.0 mi South 10.4 mph - N/A   Overcast
2:14 PM 58.3 °F - 56.7 °F 94% 29.92 in 4.0 mi South 13.8 mph - N/A   Overcast
2:34 PM 58.6 °F - 57.2 °F 95% 29.91 in 4.0 mi South 15.0 mph 19.6 mph N/A   Overcast
2:54 PM 59.0 °F - 57.2 °F 94% 29.90 in 5.0 mi South 12.7 mph - N/A   Overcast
3:14 PM 59.4 °F - 57.6 °F 94% 29.90 in 5.0 mi South 12.7 mph 19.6 mph N/A   Overcast
3:34 PM 59.4 °F - 57.6 °F 94% 29.90 in 5.0 mi South 12.7 mph - N/A   Overcast
3:54 PM 59.7 °F - 57.7 °F 93% 29.89 in 7.0 mi South 11.5 mph - N/A   Overcast
4:14 PM 60.1 °F - 58.1 °F 93% 29.89 in 7.0 mi South 15.0 mph 19.6 mph N/A   Overcast
4:34 PM 60.3 °F - 58.1 °F 93% 29.89 in 5.0 mi South 15.0 mph 20.7 mph N/A   Overcast
4:54 PM 60.4 °F - 58.1 °F 92% 29.88 in 7.0 mi South 12.7 mph - N/A   Overcast
5:14 PM 60.8 °F - 58.1 °F 91% 29.88 in 7.0 mi South 12.7 mph - N/A   Overcast
5:34 PM 60.8 °F - 57.9 °F 90% 29.88 in 7.0 mi South 13.8 mph 18.4 mph N/A   Overcast
5:54 PM 60.4 °F - 57.7 °F 91% 29.87 in 7.0 mi South 13.8 mph - N/A   Overcast
6:14 PM 60.4 °F - 57.6 °F 90% 29.86 in 7.0 mi South 13.8 mph - N/A   Overcast
6:34 PM 60.6 °F - 57.6 °F 90% 29.85 in 7.0 mi South 13.8 mph - N/A   Overcast
6:54 PM 60.8 °F - 57.6 °F 89% 29.86 in 7.0 mi South 11.5 mph - N/A   Scattered Clouds
7:14 PM 60.4 °F - 57.2 °F 89% 29.86 in 7.0 mi South 13.8 mph - N/A   Clear
7:34 PM 61.2 °F - 57.2 °F 87% 29.86 in 10.0 mi SSW 13.8 mph - N/A   Clear
7:54 PM 62.1 °F - 57.6 °F 85% 29.85 in 10.0 mi SSW 18.4 mph 24.2 mph N/A   Mostly Cloudy
8:14 PM 62.6 °F - 57.7 °F 84% 29.84 in 10.0 mi South 18.4 mph 24.2 mph N/A   Overcast
8:34 PM 62.8 °F - 57.7 °F 84% 29.84 in 10.0 mi SSW 19.6 mph 27.6 mph N/A   Overcast
8:54 PM 62.6 °F - 57.4 °F 83% 29.84 in 10.0 mi SSW 18.4 mph 25.3 mph N/A   Mostly Cloudy
9:14 PM 62.4 °F - 57.2 °F 83% 29.82 in 10.0 mi SSW 20.7 mph 28.8 mph N/A   Scattered Clouds
9:34 PM 62.2 °F - 56.7 °F 82% 29.82 in 10.0 mi SSW 20.7 mph 29.9 mph N/A   Clear
9:54 PM 62.6 °F - 56.3 °F 80% 29.82 in 10.0 mi SSW 23.0 mph 38.0 mph N/A   Scattered Clouds
10:14 PM 62.8 °F - 56.1 °F 79% 29.82 in 10.0 mi SSW 23.0 mph 31.1 mph N/A   Mostly Cloudy
10:34 PM 62.8 °F - 55.4 °F 77% 29.82 in 10.0 mi SSW 21.9 mph 35.7 mph N/A   Mostly Cloudy
10:54 PM 63.0 °F - 55.2 °F 76% 29.81 in 10.0 mi SSW 21.9 mph 34.5 mph N/A   Mostly Cloudy
11:14 PM 63.1 °F - 55.0 °F 75% 29.82 in 10.0 mi SSW 20.7 mph 29.9 mph N/A   Overcast
11:34 PM 63.3 °F - 54.9 °F 74% 29.82 in 10.0 mi SW 21.9 mph 27.6 mph N/A   Overcast
11:54 PM 62.8 °F - 54.5 °F 74% 29.82 in 10.0 mi SW 19.6 mph 26.5 mph N/A   Overcast